Skip Page Navigation
NASA JPL Caltech
NASA Logo - Jet Propulsion Laboratory + View the NASA Portal
+ Center for Near-Earth Object Studies
JPL Home Earth Solar System Stars & Galaxies Technology
JPL Solar System Dynamics
BODIES ORBITS EPHEMERIDES TOOLS PHYSICAL DATA DISCOVERY FAQ SITE MAP
IMPORTANT: The SSD Announcement email list is now available. Major changes are coming in the near future, including possible hostname and/or URL changes. To be notified of such changes, subscribe to this email list.

Please visit this page for more details.


JPL Small-Body Database Browser
Search: [ help ]  
91024 Szechenyi (1998 DA33)
Classification: Main-belt Asteroid          SPK-ID: 2091024
Ephemeris | Orbit Diagram | Orbital Elements | Mission Design | Physical Parameters | Discovery Circumstances | Close-Approach Data ]

[ show orbit diagram ]
Orbital Elements at Epoch 2459000.5 (2020-May-31.0) TDB
Reference: JPL 20 (heliocentric ecliptic J2000)
 Element Value Uncertainty (1-sigma)   Units 
e .06375699908376421 5.2184e-08  
a 2.661632751058551 1.3595e-08 au
q 2.491935034187994 1.4227e-07 au
i 4.63820470923614 5.5303e-06 deg
node 5.531884057282807 5.4585e-05 deg
peri 204.5161147460174 6.8885e-05 deg
M 27.93490281623382 4.2982e-05 deg
tp 2458877.426291057880
(2020-Jan-28.92629106)
0.00018916 TDB
period 1586.063696395437
4.34
1.2152e-05
3.327e-08
d
yr
n .2269770128514718 1.7391e-09 deg/d
Q 2.831330467929109 1.4462e-08 au
  Orbit Determination Parameters
   # obs. used (total)      924  
   data-arc span      13598 days (37.23 yr)  
   first obs. used      1982-11-05  
   last obs. used      2020-01-28  
   planetary ephem.      DE431  
   SB-pert. ephem.      SB431-N16  
   condition code      0  
   norm. resid. RMS      .53553  
   source      ORB  
   producer      Otto Matic  
   solution date      2020-Feb-23 22:22:05  

Additional Information
 Earth MOID = 1.48754 au 
 Jupiter MOID = 2.1338 au 
 T_jup = 3.378 
[ show covariance matrix ]

Ephemeris | Orbit Diagram | Orbital Elements | Mission Design | Physical Parameters | Discovery Circumstances | Close-Approach Data ]

Physical Parameter Table
Parameter Symbol Value Units Sigma Reference Notes
absolute magnitude H 15.2   n/a MPO436408  
diameter diameter 2.997 km 0.830 urn:nasa:pds:neowise_diameters_albedos::2.0[mainbelt] (http://adsabs.harvard.edu/abs/2011ApJ...741...68M)  
geometric albedo albedo 0.197   0.071 urn:nasa:pds:neowise_diameters_albedos::2.0[mainbelt] (http://adsabs.harvard.edu/abs/2011ApJ...741...68M)  

91024 Széchenyi           Discovered 1998 Feb. 28 by K. Sárneczky and L. Kiss at Piszkéstető.
Count István Széchenyi (1791-1860), known as "The Greatest Hungarian", was a writer, reformer and patriot. In addition to promoting the first permanent bridge between Buda and Pest, he became famous for donating a year's income toward the foundation of the Hungarian Academy of Sciences.
NOTE: some special characters may not display properly (any characters within {} are an attempt to place the proper accent above a character)
Reference: 20080122/MPCPages.arcLast Updated: 2008-03-05

[ show close-approach data ]
Alternate Designations
 1998 DA33 = 1995 SJ49 
Ephemeris | Orbit Diagram | Orbital Elements | Mission Design | Physical Parameters | Discovery Circumstances | Close-Approach Data ]
ABOUT SSD CREDITS/AWARDS PRIVACY/COPYRIGHT GLOSSARY LINKS
FirstGov 2020-Feb-25 19:23 UT
(server date/time)  
NASA Home Page
Site Manager:   Ryan S. Park
Webmaster  Alan B. Chamberlin